Location: Zagreb
(45.8000°N, 16.0000°E)
Time: 10:54:52
(UTC+02:00)

Tiros 1 despin weight - Visible Passes

Search period start: 15 July 2024 00:00
Search period end: 25 July 2024 00:00
Orbit: 576 x 620 km, 48.2° (Epoch: 14 July)

Date Brightness Start Highest point End Pass type
(mag) Time Alt. Az. Time Alt. Az. Time Alt. Az.
15 Jul ? 03:47:11 17° S 03:49:40 27° SE 03:53:26 10° E visible
16 Jul ? 03:56:39 18° SSW 03:59:32 42° SSE 04:03:44 10° ENE visible
17 Jul ? 02:29:26 16° SE 02:29:26 16° SE 02:31:47 10° E visible
17 Jul ? 04:06:03 16° SW 04:09:29 63° SSE 04:13:53 10° ENE visible
18 Jul ? 02:38:48 27° SE 02:38:48 27° SE 02:42:27 10° E visible
18 Jul ? 04:15:25 12° WSW 04:19:30 86° SSE 04:23:57 10° ENE visible
19 Jul ? 02:48:07 40° SSE 02:48:35 41° SSE 02:52:44 10° ENE visible
19 Jul ? 04:25:11 10° W 04:29:33 76° NNW 04:34:01 10° ENE visible
20 Jul ? 02:57:23 44° SSW 02:58:30 62° SSE 03:02:52 10° ENE visible
20 Jul ? 04:35:18 10° W 04:39:40 66° N 04:44:05 10° ENE visible
21 Jul ? 01:30:01 17° E 01:30:01 17° E 01:31:23 10° E visible
21 Jul ? 03:06:38 34° WSW 03:08:28 85° SSE 03:12:54 10° ENE visible
21 Jul ? 04:45:25 10° W 04:49:46 63° N 04:54:11 10° E visible
22 Jul ? 01:39:13 28° E 01:39:13 28° E 01:41:39 10° ENE visible
22 Jul ? 03:15:49 23° W 03:18:31 76° NNW 03:22:55 10° ENE visible
23 Jul ? 01:48:23 47° ESE 01:48:23 47° ESE 01:51:45 10° ENE visible
23 Jul ? 03:25:01 15° W 03:28:34 66° N 03:32:58 10° ENE visible
24 Jul ? 01:57:32 80° ESE 01:57:32 80° ESE 02:01:46 10° ENE visible
24 Jul ? 03:34:19 10° W 03:38:39 62° N 03:43:02 10° E visible
